JBU4242 MUHA-KMIA

Flight info

Callsign JBU4242
Flight time 0h 45m
Altitude 25000
Route EPMAR4A MAXIM SNDBR3
Aircraft A320/M-SDE3FGHIRWY/LB1

Departure

Time 2026-05-03 22:51
Airport José Martí International Airport (MUHA)

Arrival

Time 2026-05-03 23:36
Airport Miami International Airport (KMIA)
Time Latitude Longitude Altitude Speed Heading
2026-05-03 22:30 22.99615 -82.40664 200 ft 0 kts 349°
2026-05-03 22:40 22.99605 -82.40662 200 ft 3 kts 353°
2026-05-03 22:40 22.99585 -82.40659 200 ft 3 kts 344°
2026-05-03 22:41 22.99568 -82.40651 212 ft 3 kts 330°
2026-05-03 22:41 22.99550 -82.40641 209 ft 3 kts 332°
2026-05-03 22:41 22.99532 -82.40630 209 ft 3 kts 325°
2026-05-03 22:41 22.99522 -82.40622 213 ft 1 kts 320°
2026-05-03 22:42 22.99520 -82.40620 213 ft 0 kts 320°
2026-05-03 22:44 22.99524 -82.40622 213 ft 1 kts 339°
2026-05-03 22:44 22.99528 -82.40618 213 ft 1 kts 26°
2026-05-03 22:45 22.99544 -82.40590 213 ft 10 kts 56°
2026-05-03 22:45 22.99590 -82.40506 209 ft 10 kts 86°
2026-05-03 22:45 22.99546 -82.40448 210 ft 11 kts 146°
2026-05-03 22:45 22.99473 -82.40407 212 ft 13 kts 188°
2026-05-03 22:46 22.99413 -82.40480 208 ft 14 kts 236°
2026-05-03 22:46 22.99350 -82.40577 208 ft 17 kts 234°
2026-05-03 22:46 22.99279 -82.40685 206 ft 18 kts 233°
2026-05-03 22:46 22.99200 -82.40799 206 ft 20 kts 233°
2026-05-03 22:47 22.99123 -82.40914 207 ft 16 kts 234°
2026-05-03 22:47 22.99056 -82.41016 207 ft 18 kts 234°
2026-05-03 22:47 22.98980 -82.41130 210 ft 20 kts 234°
2026-05-03 22:47 22.98896 -82.41259 208 ft 22 kts 235°
2026-05-03 22:48 22.98804 -82.41403 213 ft 24 kts 235°
2026-05-03 22:48 22.98698 -82.41557 199 ft 27 kts 236°
2026-05-03 22:48 22.98594 -82.41715 201 ft 26 kts 235°
2026-05-03 22:48 22.98485 -82.41878 202 ft 27 kts 233°
2026-05-03 22:49 22.98379 -82.42038 200 ft 26 kts 234°
2026-05-03 22:49 22.98270 -82.42202 203 ft 28 kts 233°
2026-05-03 22:49 22.98153 -82.42377 202 ft 28 kts 234°
2026-05-03 22:49 22.98073 -82.42500 205 ft 14 kts 234°
2026-05-03 22:50 22.97995 -82.42569 201 ft 15 kts 177°
2026-05-03 22:50 22.97904 -82.42504 202 ft 12 kts 143°
2026-05-03 22:50 22.97904 -82.42435 208 ft 11 kts 57°
2026-05-03 22:50 22.98032 -82.42241 200 ft 72 kts 54°
2026-05-03 22:51 22.98494 -82.41551 204 ft 148 kts 53°
2026-05-03 22:51 22.99185 -82.40502 540 ft 182 kts 53°
2026-05-03 22:51 22.99928 -82.39381 1480 ft 184 kts 54°
2026-05-03 22:51 23.00732 -82.38182 2032 ft 214 kts 54°
2026-05-03 22:52 23.01630 -82.36851 2437 ft 221 kts 56°
2026-05-03 22:52 23.02582 -82.35451 2781 ft 242 kts 54°
2026-05-03 22:52 23.03633 -82.33912 3263 ft 264 kts 54°
2026-05-03 22:52 23.04767 -82.32258 3799 ft 282 kts 54°
2026-05-03 22:53 23.05840 -82.30448 4612 ft 286 kts 70°
2026-05-03 22:53 23.06113 -82.28335 5522 ft 284 kts 96°
2026-05-03 22:53 23.05618 -82.26275 6393 ft 282 kts 119°
2026-05-03 22:53 23.04468 -82.24541 7095 ft 286 kts 140°
2026-05-03 22:54 23.02812 -82.23359 7816 ft 287 kts 162°
2026-05-03 22:54 23.00859 -82.23090 8568 ft 285 kts 189°
2026-05-03 22:54 22.98979 -82.23721 9382 ft 283 kts 210°
2026-05-03 22:54 22.97450 -82.25034 10177 ft 282 kts 231°
2026-05-03 22:55 22.96511 -82.26887 10896 ft 282 kts 253°
2026-05-03 22:55 22.96320 -82.29002 11648 ft 284 kts 276°
2026-05-03 22:55 22.96903 -82.31063 12235 ft 295 kts 297°
2026-05-03 22:55 22.98284 -82.32827 12398 ft 323 kts 320°
2026-05-03 22:56 23.00369 -82.33925 12670 ft 345 kts 344°
2026-05-03 22:56 23.02763 -82.34075 13202 ft 357 kts
2026-05-03 22:56 23.05198 -82.33449 13804 ft 363 kts 14°
2026-05-03 22:56 23.07638 -82.32669 14356 ft 367 kts 17°
2026-05-03 22:57 23.09892 -82.31356 14880 ft 375 kts 36°
2026-05-03 22:57 23.11838 -82.29442 15412 ft 380 kts 43°
2026-05-03 22:57 23.13702 -82.27401 15950 ft 383 kts 44°
2026-05-03 22:57 23.15610 -82.25358 16480 ft 386 kts 38°
2026-05-03 22:58 23.17872 -82.23899 16978 ft 384 kts 17°
2026-05-03 22:58 23.20474 -82.23343 17492 ft 381 kts 358°
2026-05-03 22:58 23.23126 -82.23398 18031 ft 382 kts 354°
2026-05-03 22:58 23.25786 -82.23582 18515 ft 383 kts 346°
2026-05-03 22:59 23.28336 -82.24367 18956 ft 382 kts 337°
2026-05-03 22:59 23.30854 -82.25317 19439 ft 384 kts 336°
2026-05-03 22:59 23.33387 -82.26284 19927 ft 386 kts 336°
2026-05-03 22:59 23.35932 -82.27260 20419 ft 389 kts 336°
2026-05-03 23:00 23.38488 -82.28242 20901 ft 391 kts 336°
2026-05-03 23:00 23.41063 -82.29232 21377 ft 393 kts 335°
2026-05-03 23:00 23.43651 -82.30226 21838 ft 396 kts 335°
2026-05-03 23:00 23.46255 -82.31224 22291 ft 398 kts 335°
2026-05-03 23:01 23.48871 -82.32225 22754 ft 400 kts 335°
2026-05-03 23:01 23.51510 -82.33236 23216 ft 403 kts 335°
2026-05-03 23:01 23.54163 -82.34252 23648 ft 405 kts 335°
2026-05-03 23:01 23.56795 -82.35259 24028 ft 407 kts 335°
2026-05-03 23:02 23.59484 -82.36289 24386 ft 410 kts 335°
2026-05-03 23:02 23.62194 -82.37291 24755 ft 414 kts 338°
2026-05-03 23:02 23.64980 -82.38130 24960 ft 416 kts 339°
2026-05-03 23:02 23.67780 -82.38943 25011 ft 416 kts 339°
2026-05-03 23:03 23.70551 -82.39744 25020 ft 416 kts 339°
2026-05-03 23:03 23.73351 -82.40547 25017 ft 416 kts 339°
2026-05-03 23:03 23.76148 -82.41341 25018 ft 416 kts 339°
2026-05-03 23:03 23.78955 -82.42135 25019 ft 416 kts 339°
2026-05-03 23:04 23.81762 -82.42930 25019 ft 416 kts 339°
2026-05-03 23:04 23.84562 -82.43722 25019 ft 416 kts 339°
2026-05-03 23:04 23.87364 -82.44515 25019 ft 416 kts 339°
2026-05-03 23:04 23.90172 -82.45303 25028 ft 416 kts 339°
2026-05-03 23:05 23.92976 -82.46077 25025 ft 414 kts 338°
2026-05-03 23:05 23.95536 -82.47162 25016 ft 388 kts 323°
2026-05-03 23:05 23.97653 -82.48872 25018 ft 373 kts 310°
2026-05-03 23:05 23.99564 -82.50788 25016 ft 377 kts 318°
2026-05-03 23:06 24.01939 -82.52096 25019 ft 392 kts 338°
2026-05-03 23:06 24.04704 -82.52333 25019 ft 411 kts
2026-05-03 23:06 24.07457 -82.51335 25019 ft 428 kts 26°
2026-05-03 23:06 24.09749 -82.49202 25019 ft 439 kts 50°
2026-05-03 23:07 24.11190 -82.46251 25017 ft 445 kts 73°
2026-05-03 23:07 24.11719 -82.42989 25022 ft 445 kts 85°
2026-05-03 23:07 24.12126 -82.39627 25020 ft 446 kts 77°
2026-05-03 23:07 24.13247 -82.36473 25021 ft 443 kts 56°
2026-05-03 23:08 24.15198 -82.33908 25021 ft 436 kts 39°
2026-05-03 23:08 24.17344 -82.31555 25016 ft 439 kts 47°
2026-05-03 23:08 24.19020 -82.28965 25016 ft 442 kts 58°
2026-05-03 23:08 24.20485 -82.25795 25015 ft 445 kts 65°
2026-05-03 23:09 24.21640 -82.22650 25005 ft 446 kts 69°
2026-05-03 23:09 24.22718 -82.19512 25002 ft 447 kts 69°
2026-05-03 23:09 24.23856 -82.16341 25001 ft 448 kts 67°
2026-05-03 23:09 24.25052 -82.13279 25003 ft 448 kts 65°
2026-05-03 23:10 24.26362 -82.10171 25007 ft 448 kts 63°
2026-05-03 23:10 24.27726 -82.07101 25008 ft 448 kts 62°
2026-05-03 23:10 24.28645 -82.05075 25010 ft 448 kts 62°
2026-05-03 23:10 24.30038 -82.02007 25013 ft 449 kts 62°
2026-05-03 23:11 24.31413 -81.98939 25013 ft 449 kts 63°
2026-05-03 23:11 24.32770 -81.95856 25018 ft 449 kts 63°
2026-05-03 23:11 24.34504 -81.91859 25022 ft 449 kts 63°
2026-05-03 23:12 24.34789 -81.91198 25020 ft 449 kts 63°
2026-05-03 23:12 24.35327 -81.89948 25021 ft 449 kts 63°
2026-05-03 23:12 24.36123 -81.88100 25022 ft 449 kts 63°
2026-05-03 23:13 24.36355 -81.87560 25024 ft 449 kts 63°
2026-05-03 23:13 24.37674 -81.84504 25025 ft 449 kts 63°
2026-05-03 23:13 24.39008 -81.81422 25025 ft 449 kts 63°
2026-05-03 23:13 24.39179 -81.81027 25025 ft 449 kts 63°
2026-05-03 23:14 24.40547 -81.77870 25024 ft 449 kts 63°
2026-05-03 23:14 24.40779 -81.77334 25024 ft 449 kts 63°
2026-05-03 23:14 24.42085 -81.74313 25025 ft 449 kts 63°
2026-05-03 23:14 24.43440 -81.71173 25025 ft 449 kts 63°
2026-05-03 23:15 24.44774 -81.68123 25022 ft 449 kts 60°
2026-05-03 23:15 24.46426 -81.65233 25020 ft 446 kts 50°
2026-05-03 23:15 24.48385 -81.62606 25024 ft 444 kts 47°
2026-05-03 23:15 24.50367 -81.59993 25026 ft 444 kts 47°
2026-05-03 23:16 24.52342 -81.57382 25028 ft 444 kts 47°
2026-05-03 23:16 24.54310 -81.54770 25033 ft 444 kts 47°
2026-05-03 23:16 24.56272 -81.52161 25032 ft 443 kts 47°
2026-05-03 23:16 24.58233 -81.49549 25028 ft 443 kts 47°
2026-05-03 23:17 24.60193 -81.46939 25029 ft 443 kts 47°
2026-05-03 23:17 24.62151 -81.44329 25027 ft 443 kts 47°
2026-05-03 23:17 24.64092 -81.41744 25025 ft 443 kts 47°
2026-05-03 23:17 24.66052 -81.39136 25024 ft 443 kts 47°
2026-05-03 23:18 24.68012 -81.36526 25020 ft 443 kts 47°
2026-05-03 23:18 24.69970 -81.33919 25020 ft 443 kts 47°
2026-05-03 23:18 24.71932 -81.31305 25020 ft 443 kts 47°
2026-05-03 23:18 24.73889 -81.28697 25008 ft 442 kts 47°
2026-05-03 23:19 24.75831 -81.26104 24793 ft 434 kts 47°
2026-05-03 23:19 24.77733 -81.23561 24568 ft 426 kts 47°
2026-05-03 23:19 24.79607 -81.21053 24344 ft 422 kts 47°
2026-05-03 23:19 24.81471 -81.18557 24123 ft 420 kts 47°
2026-05-03 23:20 24.83315 -81.16085 23843 ft 416 kts 47°
2026-05-03 23:20 24.85248 -81.13729 23337 ft 413 kts 39°
2026-05-03 23:20 24.87428 -81.11780 22842 ft 407 kts 30°
2026-05-03 23:20 24.89846 -81.10229 22446 ft 398 kts 20°
2026-05-03 23:21 24.92362 -81.08971 21971 ft 395 kts 19°
2026-05-03 23:21 24.94853 -81.07742 21587 ft 389 kts 19°
2026-05-03 23:21 24.97314 -81.06528 20898 ft 384 kts 19°
2026-05-03 23:21 24.99736 -81.05331 20411 ft 380 kts 19°
2026-05-03 23:22 25.04528 -81.02964 19495 ft 375 kts 19°
2026-05-03 23:22 25.06902 -81.01792 19047 ft 372 kts 19°
2026-05-03 23:22 25.09255 -81.00635 18579 ft 369 kts 19°
2026-05-03 23:23 25.11592 -80.99486 18092 ft 366 kts 19°
2026-05-03 23:23 25.13905 -80.98343 17624 ft 363 kts 20°
2026-05-03 23:23 25.16198 -80.97206 17183 ft 360 kts 20°
2026-05-03 23:23 25.18476 -80.96075 16728 ft 357 kts 20°
2026-05-03 23:24 25.20730 -80.94957 16276 ft 354 kts 20°
2026-05-03 23:24 25.22967 -80.93846 15841 ft 351 kts 20°
2026-05-03 23:24 25.25183 -80.92748 15408 ft 348 kts 20°
2026-05-03 23:24 25.27396 -80.91655 14984 ft 354 kts 20°
2026-05-03 23:25 25.29671 -80.90534 14538 ft 361 kts 20°
2026-05-03 23:25 25.31963 -80.89399 14086 ft 360 kts 20°
2026-05-03 23:25 25.34243 -80.88266 13624 ft 357 kts 21°
2026-05-03 23:25 25.36498 -80.87142 13181 ft 355 kts 20°
2026-05-03 23:26 25.38743 -80.86022 12730 ft 352 kts 20°
2026-05-03 23:26 25.40950 -80.84952 12305 ft 349 kts 19°
2026-05-03 23:26 25.43180 -80.83914 11872 ft 346 kts 19°
2026-05-03 23:26 25.45403 -80.82914 11449 ft 342 kts 17°
2026-05-03 23:27 25.47623 -80.82023 11075 ft 338 kts 15°
2026-05-03 23:27 25.49849 -80.81199 10824 ft 338 kts 14°
2026-05-03 23:27 25.52070 -80.80397 10378 ft 334 kts 14°
2026-05-03 23:27 25.54263 -80.79603 10344 ft 331 kts 14°
2026-05-03 23:28 25.56458 -80.78799 10585 ft 334 kts 14°
2026-05-03 23:28 25.58678 -80.77980 10605 ft 337 kts 14°
2026-05-03 23:28 25.60840 -80.77171 10409 ft 319 kts 15°
2026-05-03 23:28 25.62878 -80.76383 10242 ft 302 kts 19°
2026-05-03 23:29 25.64639 -80.75266 10083 ft 290 kts 36°
2026-05-03 23:29 25.66038 -80.73719 9855 ft 282 kts 50°
2026-05-03 23:29 25.67219 -80.71995 9406 ft 279 kts 51°
2026-05-03 23:29 25.68349 -80.70340 8971 ft 277 kts 51°
2026-05-03 23:30 25.69505 -80.68648 8558 ft 274 kts 51°
2026-05-03 23:30 25.70678 -80.66937 7861 ft 283 kts 51°
2026-05-03 23:30 25.71887 -80.65172 7135 ft 292 kts 51°
2026-05-03 23:30 25.73126 -80.63358 6399 ft 298 kts 51°
2026-05-03 23:31 25.74367 -80.61539 5619 ft 292 kts 51°
2026-05-03 23:31 25.75568 -80.59776 4877 ft 281 kts 52°
2026-05-03 23:31 25.76716 -80.58077 4259 ft 266 kts 57°
2026-05-03 23:31 25.77441 -80.56282 3965 ft 250 kts 76°
2026-05-03 23:32 25.77632 -80.54377 3688 ft 249 kts 88°
2026-05-03 23:32 25.77713 -80.52484 3380 ft 244 kts 86°
2026-05-03 23:32 25.77796 -80.50597 3099 ft 243 kts 87°
2026-05-03 23:32 25.77875 -80.48761 2994 ft 239 kts 87°
2026-05-03 23:33 25.77954 -80.46898 2853 ft 246 kts 87°
2026-05-03 23:33 25.78033 -80.45008 2519 ft 235 kts 86°
2026-05-03 23:33 25.78103 -80.43261 2245 ft 223 kts 87°
2026-05-03 23:33 25.78172 -80.41583 1894 ft 215 kts 86°
2026-05-03 23:34 25.78259 -80.39954 1521 ft 205 kts 85°
2026-05-03 23:34 25.78335 -80.38437 1213 ft 190 kts 86°
2026-05-03 23:34 25.78372 -80.37021 1005 ft 174 kts 88°
2026-05-03 23:34 25.78408 -80.35744 856 ft 157 kts 86°
2026-05-03 23:35 25.78470 -80.34587 722 ft 145 kts 87°
2026-05-03 23:35 25.78525 -80.33495 516 ft 137 kts 85°
2026-05-03 23:35 25.78564 -80.32439 312 ft 136 kts 86°
2026-05-03 23:35 25.78612 -80.31405 116 ft 135 kts 85°
2026-05-03 23:36 25.78660 -80.30396 20 ft 119 kts 86°
2026-05-03 23:36 25.78686 -80.29666 21 ft 66 kts 87°
2026-05-03 23:36 25.78702 -80.29351 21 ft 31 kts 83°
2026-05-03 23:36 25.78770 -80.29191 21 ft 23 kts 43°
2026-05-03 23:37 25.78823 -80.29059 20 ft 0 kts 84°